EW0520 Weather Reports


Display with metric or nautical units.
time (UTC)temp
F
wind
direction
speed
MPH
gust
MPH
rain 1hr
in
rain 24hr
in
rain mn
in
humidity
%
barometer
mb
20260508024508 38 270 0.0 2.0 0.00 0.00 0.00 82 1012.1
20260508024009 38 270 0.0 1.0 0.00 0.00 0.00 81 1012.2
20260508023509 39 270 0.0 2.0 0.00 0.00 0.00 79 1012.1
20260508023008 39 270 0.0 3.0 0.00 0.00 0.00 79 1012.1
20260508022509 39 270 1.0 3.0 0.00 0.00 0.00 78 1012.0
20260508022008 39 270 1.0 3.0 0.00 0.00 0.00 77 1012.0
20260508021509 40 270 1.0 3.0 0.00 0.00 0.00 76 1012.0
20260508021009 40 270 1.0 3.0 0.00 0.00 0.00 76 1011.9
20260508020508 41 271 2.0 3.0 0.00 0.00 0.00 74 1011.9
20260508020009 41 273 2.0 3.0 0.00 0.00 0.00 74 1011.9
20260508015509 41 274 1.0 3.0 0.00 0.00 0.00 73 1011.9
20260508014008 43 274 2.0 3.0 0.00 0.00 0.00 70 1011.9
20260508013509 43 275 2.0 3.0 0.00 0.00 0.00 70 1011.9
20260508013009 43 275 2.0 3.0 0.00 0.00 0.00 68 1011.9
20260508012509 43 274 2.0 3.0 0.00 0.00 0.00 68 1011.9
20260508012009 44 275 1.0 3.0 0.00 0.00 0.00 65 1011.8
20260508011509 44 275 2.0 3.0 0.00 0.00 0.00 61 1011.8
20260508011009 45 275 2.0 3.0 0.00 0.00 0.00 62 1011.7
20260508010508 45 275 2.0 3.0 0.00 0.00 0.00 60 1011.8
20260508005509 46 279 2.0 8.0 0.00 0.00 0.00 58 1011.6
20260508005009 46 277 2.0 4.0 0.00 0.00 0.00 57 1011.6
20260508004509 46 277 2.0 6.0 0.00 0.00 0.00 55 1011.7
20260508004008 48 280 3.0 7.0 0.00 0.00 0.00 53 1011.6
20260508003509 48 285 4.0 8.0 0.00 0.00 0.00 54 1011.6
20260508003009 49 283 5.0 14.0 0.00 0.00 0.00 52 1011.6
20260508002009 49 271 4.0 14.0 0.00 0.00 0.00 50 1011.5
20260508001009 50 279 5.0 13.0 0.00 0.00 0.00 49 1011.4
20260508000509 50 289 5.0 12.0 0.00 0.00 0.00 48 1011.3
20260508000009 50 290 5.0 16.0 0.00 0.00 0.00 47 1011.2
20260507235509 50 289 7.0 16.0 0.00 0.00 0.00 47 1011.2
20260507235008 51 292 7.0 16.0 0.00 0.00 0.00 46 1011.2
20260507234509 51 287 7.0 15.0 0.00 0.00 0.00 45 1011.2
20260507234008 51 281 8.0 19.0 0.00 0.00 0.00 47 1011.2
20260507233509 51 284 9.0 19.0 0.00 0.00 0.00 45 1011.2
20260507233008 51 290 8.0 16.0 0.00 0.00 0.00 45 1011.2
20260507232509 51 293 7.0 13.0 0.00 0.00 0.00 45 1011.2
20260507232008 52 290 8.0 17.0 0.00 0.00 0.00 45 1011.2
20260507231509 52 283 11.0 22.0 0.00 0.00 0.00 44 1011.1
20260507231008 52 283 12.0 22.0 0.00 0.00 0.00 43 1011.2
20260507230509 52 289 11.0 23.0 0.00 0.00 0.00 44 1011.2
20260507230009 52 288 9.0 23.0 0.00 0.00 0.00 44 1011.2
20260507225009 53 278 10.0 21.0 0.00 0.00 0.00 46 1011.2
20260507224508 53 275 10.0 21.0 0.00 0.00 0.00 45 1011.1
20260507224009 53 273 12.0 27.0 0.00 0.00 0.00 46 1011.2
20260507223508 53 279 11.0 27.0 0.00 0.00 0.00 43 1011.3
20260507223009 53 284 9.0 22.0 0.00 0.00 0.00 50 1011.1
20260507222508 53 273 10.0 22.0 0.00 0.00 0.00 49 1011.1
20260507222009 52 264 9.0 19.0 0.00 0.00 0.00 52 1011.1
20260507221508 52 267 11.0 20.0 0.00 0.00 0.00 53 1011.2
20260507221009 53 272 10.0 20.0 0.00 0.00 0.00 51 1011.2
20260507220508 53 285 8.0 20.0 0.00 0.00 0.00 53 1011.2
20260507220009 52 285 8.0 16.0 0.00 0.00 0.00 55 1011.2
20260507215508 52 270 10.0 20.0 0.00 0.00 0.00 57 1011.1
20260507215009 52 268 12.0 20.0 0.00 0.00 0.00 54 1011.0
20260507214509 53 270 11.0 22.0 0.00 0.00 0.00 53 1011.0
20260507214008 54 279 6.0 22.0 0.00 0.00 0.00 54 1010.9
20260507213509 52 281 4.0 11.0 0.00 0.00 0.00 56 1010.9
20260507213008 52 284 6.0 18.0 0.00 0.00 0.00 59 1010.9
20260507211508 52 278 8.0 17.0 0.00 0.00 0.00 57 1010.9
20260507205509 51 292 9.0 18.0 0.00 0.00 0.00 57 1010.7
20260507205008 52 292 9.0 17.0 0.00 0.00 0.00 56 1010.6
20260507204509 52 302 6.0 17.0 0.00 0.00 0.00 56 1010.5
20260507204008 52 308 4.0 14.0 0.00 0.00 0.00 56 1010.4
20260507203508 52 302 7.0 15.0 0.00 0.00 0.00 56 1010.4
20260507203009 52 296 6.0 15.0 0.00 0.00 0.00 56 1010.3
20260507202508 52 298 7.0 16.0 0.00 0.00 0.00 56 1010.4
20260507201508 53 292 6.0 13.0 0.00 0.00 0.00 54 1010.3
20260507200508 53 287 9.0 17.0 0.00 0.00 0.00 52 1010.3
20260507200008 55 275 8.0 15.0 0.00 0.00 0.00 50 1010.3
20260507195509 56 256 8.0 17.0 0.00 0.00 0.00 50 1010.3
20260507195008 55 272 8.0 20.0 0.00 0.00 0.00 50 1010.4
20260507194510 56 307 6.0 20.0 0.00 0.00 0.00 50 1010.5
20260507194008 54 313 6.0 16.0 0.00 0.00 0.00 51 1010.5
20260507193508 53 294 7.0 15.0 0.00 0.00 0.00 50 1010.6
20260507192508 55 281 7.0 14.0 0.00 0.00 0.00 48 1010.7
20260507192009 55 286 7.0 14.0 0.00 0.00 0.00 49 1010.8
20260507191508 56 288 7.0 17.0 0.00 0.00 0.00 51 1010.8
20260507191008 56 278 8.0 17.0 0.00 0.00 0.00 49 1010.8
20260507190508 55 277 8.0 17.0 0.00 0.00 0.00 52 1010.8
20260507185509 54 300 7.0 15.0 0.00 0.00 0.00 51 1010.6
20260507185008 54 305 7.0 15.0 0.00 0.00 0.00 48 1010.7
20260507184009 53 282 6.0 17.0 0.00 0.00 0.00 50 1010.7
20260507183508 54 297 7.0 17.0 0.00 0.00 0.00 54 1010.7
20260507183008 55 301 7.0 17.0 0.00 0.00 0.00 51 1010.7
20260507182508 55 298 8.0 16.0 0.00 0.00 0.00 55 1010.6
20260507182008 54 289 9.0 17.0 0.00 0.00 0.00 51 1010.8
20260507181509 53 288 9.0 20.0 0.00 0.00 0.00 53 1010.7
20260507180509 53 303 7.0 19.0 0.00 0.00 0.00 55 1010.7
20260507180008 54 295 9.0 19.0 0.00 0.00 0.00 53 1010.8
20260507175508 54 306 9.0 16.0 0.00 0.00 0.00 54 1010.7
20260507174508 56 292 7.0 15.0 0.00 0.00 0.00 54 1010.6
20260507174008 54 284 7.0 15.0 0.00 0.00 0.00 54 1010.7
20260507173508 55 282 6.0 15.0 0.00 0.00 0.00 56 1010.7
20260507173009 54 283 6.0 17.0 0.00 0.00 0.00 55 1010.7
20260507172508 54 273 6.0 17.0 0.00 0.00 0.00 51 1010.6
20260507172008 55 265 8.0 15.0 0.00 0.00 0.00 50 1010.7
20260507171508 57 263 9.0 15.0 0.00 0.00 0.00 46 1010.6
20260507171009 56 267 9.0 18.0 0.00 0.00 0.00 53 1010.7
20260507170508 55 268 8.0 18.0 0.00 0.00 0.00 49 1010.7
20260507170009 55 274 6.0 14.0 0.00 0.00 0.00 50 1010.7
20260507165508 56 274 6.0 16.0 0.00 0.00 0.00 52 1010.7
20260507165008 55 269 8.0 19.0 0.00 0.00 0.00 47 1010.8
20260507164508 57 271 7.0 19.0 0.00 0.00 0.00 45 1010.7
20260507163508 56 246 9.0 18.0 0.00 0.00 0.00 44 1010.8
20260507163008 56 247 8.0 18.0 0.00 0.00 0.00 43 1010.8
20260507162509 55 258 6.0 14.0 0.00 0.00 0.00 44 1010.7
20260507162016 55 285 3.0 10.0 0.00 0.00 0.00 46 1010.8
20260507161509 53 277 5.0 13.0 0.00 0.00 0.00 51 1010.8
20260507161008 53 270 7.0 13.0 0.00 0.00 0.00 52 1010.9
20260507160508 53 259 8.0 13.0 0.00 0.00 0.00 50 1010.9
20260507160008 53 256 7.0 14.0 0.00 0.00 0.00 48 1011.0
20260507155508 55 260 5.0 14.0 0.00 0.00 0.00 47 1011.0
20260507155008 55 272 4.0 13.0 0.00 0.00 0.00 51 1011.1
20260507154508 54 269 4.0 10.0 0.00 0.00 0.00 53 1011.2
20260507154010 53 266 4.0 10.0 0.00 0.00 0.00 52 1011.2
20260507153508 54 277 5.0 12.0 0.00 0.00 0.00 53 1011.3
20260507153008 55 258 4.0 12.0 0.00 0.00 0.00 47 1011.3
20260507152508 55 242 5.0 12.0 0.00 0.00 0.00 48 1011.2
20260507152009 54 258 6.0 14.0 0.00 0.00 0.00 55 1011.3
20260507151008 53 271 5.0 14.0 0.00 0.00 0.00 50 1011.2
20260507150508 53 281 7.0 14.0 0.00 0.00 0.00 48 1011.4
20260507150008 53 273 6.0 13.0 0.00 0.00 0.00 50 1011.4
20260507145508 54 269 6.0 13.0 0.00 0.00 0.00 47 1011.3
20260507145008 55 280 4.0 13.0 0.00 0.00 0.00 48 1011.3
20260507144508 54 305 4.0 11.0 0.00 0.00 0.00 58 1011.4
20260507144008 53 311 4.0 11.0 0.00 0.00 0.00 51 1011.4
20260507143508 53 320 3.0 9.0 0.00 0.00 0.00 53 1011.4
20260507143008 53 298 5.0 11.0 0.00 0.00 0.00 55 1011.5
20260507142008 54 293 4.0 10.0 0.00 0.00 0.00 55 1011.5
20260507141508 53 295 3.0 8.0 0.00 0.00 0.00 56 1011.6
20260507141008 53 272 5.0 11.0 0.00 0.00 0.00 58 1011.7
20260507140508 52 270 4.0 11.0 0.00 0.00 0.00 54 1011.7
20260507140008 52 287 3.0 10.0 0.00 0.00 0.00 59 1011.7
20260507135508 52 289 5.0 13.0 0.00 0.00 0.00 62 1011.8
20260507135008 52 292 4.0 13.0 0.00 0.00 0.00 57 1011.8
20260507134508 52 283 4.0 10.0 0.00 0.00 0.00 57 1011.9
20260507134008 51 287 4.0 10.0 0.00 0.00 0.00 64 1012.0
20260507133508 51 285 3.0 9.0 0.00 0.00 0.00 67 1012.0
20260507133009 50 277 4.0 9.0 0.00 0.00 0.00 67 1012.0
20260507132009 50 287 3.0 9.0 0.00 0.00 0.00 71 1012.1
20260507131509 50 294 3.0 9.0 0.00 0.00 0.00 69 1012.2
20260507131008 50 285 4.0 12.0 0.00 0.00 0.00 73 1012.1
20260507130508 50 284 5.0 12.0 0.00 0.00 0.00 69 1012.1
20260507130009 50 279 4.0 9.0 0.00 0.00 0.00 70 1011.9
20260507125508 50 266 4.0 9.0 0.00 0.00 0.00 68 1011.9
20260507125008 49 257 2.0 6.0 0.00 0.00 0.00 70 1011.8
20260507124508 49 232 2.0 8.0 0.00 0.00 0.00 73 1011.9
20260507124008 49 237 4.0 8.0 0.00 0.00 0.00 72 1011.8
20260507123508 48 241 3.0 8.0 0.00 0.00 0.00 73 1011.9
20260507123008 48 220 3.0 6.0 0.00 0.00 0.00 71 1011.9
20260507122508 47 202 3.0 6.0 0.00 0.00 0.00 73 1011.8
20260507122008 47 200 3.0 7.0 0.00 0.00 0.00 76 1011.8
20260507121508 46 212 3.0 7.0 0.00 0.00 0.00 79 1011.8
20260507121008 46 220 2.0 5.0 0.00 0.00 0.00 81 1012.0
20260507120008 44 214 2.0 6.0 0.00 0.00 0.00 86 1012.0
20260507115507 44 214 2.0 6.0 0.00 0.00 0.00 88 1012.0
20260507114008 40 215 1.0 4.0 0.00 0.00 0.00 95 1012.0
20260507113508 40 216 1.0 4.0 0.00 0.00 0.00 95 1012.0
20260507113008 39 216 1.0 3.0 0.00 0.00 0.00 96 1012.0
20260507112508 39 216 1.0 3.0 0.00 0.00 0.00 95 1012.0
20260507112008 39 216 1.0 3.0 0.00 0.00 0.00 96 1011.9
20260507111008 38 216 1.0 4.0 0.00 0.00 0.00 96 1011.9
20260507110507 38 216 1.0 3.0 0.00 0.00 0.00 96 1011.8
20260507110009 38 215 0.0 2.0 0.00 0.00 0.00 96 1011.8
20260507105008 37 0 0.0 0.0 0.00 0.00 0.00 95 1011.7
20260507104508 37 216 0.0 2.0 0.00 0.00 0.00 95 1011.7
20260507103507 37 216 1.0 3.0 0.00 0.00 0.00 95 1011.6
20260507102508 37 216 1.0 3.0 0.00 0.00 0.00 95 1011.5
20260507101508 38 214 1.0 4.0 0.00 0.00 0.00 95 1011.6
20260507100508 38 210 1.0 4.0 0.00 0.01 0.00 95 1011.4
20260507100008 38 210 1.0 4.0 0.00 0.01 0.00 95 1011.4
20260507095007 38 210 1.0 4.0 0.00 0.01 0.00 95 1011.4
20260507094508 38 205 1.0 4.0 0.00 0.02 0.00 95 1011.4
20260507094008 38 201 1.0 3.0 0.00 0.03 0.00 95 1011.4
20260507093508 38 201 0.0 2.0 0.00 0.03 0.00 95 1011.5
20260507093008 38 200 1.0 3.0 0.00 0.04 0.00 95 1011.5
20260507091508 37 200 1.0 5.0 0.00 0.06 0.00 96 1011.6
20260507091008 37 200 2.0 5.0 0.00 0.06 0.00 95 1011.5
20260507090509 36 199 2.0 4.0 0.00 0.06 0.00 96 1011.6
20260507090007 36 197 1.0 4.0 0.00 0.07 0.00 95 1011.6
20260507085508 36 195 1.0 3.0 0.00 0.07 0.00 95 1011.7
20260507085008 36 194 1.0 4.0 0.00 0.07 0.00 95 1011.6
20260507084508 35 192 2.0 5.0 0.00 0.07 0.00 95 1011.6
20260507084008 35 190 2.0 5.0 0.00 0.07 0.00 95 1011.6
20260507083508 35 188 1.0 4.0 0.00 0.07 0.00 95 1011.6
20260507083008 35 188 1.0 4.0 0.00 0.08 0.00 95 1011.7
20260507082507 35 188 1.0 3.0 0.00 0.09 0.00 95 1011.8
20260507082008 35 188 1.0 4.0 0.00 0.09 0.00 95 1011.7
20260507081008 35 187 1.0 7.0 0.00 0.10 0.00 95 1011.8
20260507080007 35 186 2.0 4.0 0.00 0.11 0.00 95 1011.8
20260507075508 35 184 1.0 4.0 0.00 0.12 0.00 94 1011.8
20260507075008 35 184 1.0 4.0 0.00 0.13 0.00 94 1011.7
20260507074509 35 184 0.0 3.0 0.00 0.13 0.00 94 1011.8
20260507073507 35 0 0.0 0.0 0.00 0.15 0.00 94 1011.8
20260507073008 35 184 0.0 1.0 0.00 0.16 0.00 94 1011.8
20260507072508 35 184 0.0 1.0 0.00 0.17 0.00 94 1011.8
20260507072008 35 0 0.0 0.0 0.00 0.18 0.00 94 1011.8
20260507071508 35 0 0.0 0.0 0.00 0.19 0.00 94 1011.8
20260507071008 35 0 0.0 0.0 0.00 0.19 0.00 93 1011.9
20260507070508 36 0 0.0 0.0 0.00 0.19 0.00 93 1011.9
20260507070012 36 184 0.0 2.0 0.00 0.20 0.00 93 1011.9
20260507065508 36 184 0.0 2.0 0.00 0.20 0.00 93 1012.0
20260507065007 36 184 0.0 1.0 0.00 0.20 0.00 93 1012.0
20260507064508 36 184 0.0 1.0 0.00 0.21 0.00 93 1012.0
20260507063008 37 183 0.0 4.0 0.00 0.23 0.00 92 1012.1
20260507062508 37 174 1.0 4.0 0.00 0.23 0.00 92 1012.2
20260507062008 37 156 1.0 4.0 0.00 0.24 0.00 92 1012.2
20260507061508 37 145 1.0 3.0 0.00 0.25 0.00 91 1012.2
20260507061008 37 145 0.0 3.0 0.00 0.26 0.00 91 1012.3
20260507060508 37 144 0.0 1.0 0.00 0.27 0.00 91 1012.3
20260507060007 37 144 0.0 1.0 0.00 0.28 0.00 90 1012.5
20260507055508 38 144 0.0 2.0 0.00 0.29 0.00 90 1012.5
20260507054508 38 144 0.0 3.0 0.00 0.30 0.00 89 1012.5
20260507054007 38 144 0.0 1.0 0.00 0.30 0.00 89 1012.5
20260507053508 39 144 0.0 1.0 0.00 0.31 0.00 88 1012.5
20260507053008 39 144 0.0 1.0 0.00 0.31 0.00 88 1012.6
20260507052507 40 144 0.0 1.0 0.00 0.31 0.00 87 1012.6
20260507051508 41 143 0.0 2.0 0.00 0.32 0.00 85 1012.7
20260507050508 41 143 0.0 3.0 0.00 0.33 0.00 84 1012.7
20260507050008 42 136 1.0 4.0 0.00 0.33 0.00 84 1012.7
20260507045508 42 123 1.0 4.0 0.00 0.33 0.00 83 1012.8
20260507045008 42 118 1.0 4.0 0.00 0.33 0.00 83 1012.8
20260507044507 42 117 1.0 4.0 0.00 0.33 0.00 84 1012.7
20260507044008 42 114 1.0 4.0 0.00 0.34 0.00 84 1012.7
20260507043507 42 111 1.0 3.0 0.00 0.34 0.00 86 1012.7
20260507043008 42 111 1.0 3.0 0.00 0.35 0.00 87 1012.8
20260507042508 42 109 1.0 3.0 0.00 0.35 0.00 86 1012.8
20260507042007 42 107 2.0 4.0 0.00 0.35 0.00 87 1013.0
20260507041508 41 105 1.0 4.0 0.00 0.36 0.00 88 1013.0
20260507040508 42 103 1.0 3.0 0.00 0.37 0.00 87 1013.2
20260507040007 42 103 1.0 2.0 0.00 0.37 0.00 86 1013.1
20260507035007 41 103 1.0 3.0 0.00 0.39 0.37 87 1013.3
20260507034508 41 103 1.0 3.0 0.00 0.39 0.37 88 1013.2
20260507034007 41 102 0.0 2.0 0.00 0.39 0.37 87 1013.3
20260507033008 41 102 1.0 2.0 0.00 0.40 0.37 85 1013.4
20260507032507 41 102 1.0 2.0 0.00 0.41 0.37 85 1013.3
20260507032008 42 102 1.0 2.0 0.00 0.41 0.37 83 1013.3
20260507031507 42 102 1.0 2.0 0.00 0.42 0.37 83 1013.4
20260507031008 42 91 2.0 6.0 0.00 0.43 0.37 82 1013.2
20260507030508 43 77 2.0 6.0 0.00 0.44 0.37 81 1013.2
20260507030008 43 66 1.0 2.0 0.00 0.45 0.37 83 1013.2
20260507025507 43 66 0.0 2.0 0.00 0.46 0.37 83 1013.3
20260507025008 43 66 1.0 4.0 0.00 0.47 0.37 82 1013.1